This demonstration page uses our WeatherBlox Daily Observations layout. Learn more.

Left ArrowRight Arrow

39.08367, -84.50855

Hourly Observations for December 18, 2017

Temp ( °F °C ) Dew Point ( °F °C ) Humidity (%) Winds ( mph kmh ) Pressure ( in mb ) Visibility ( mi km ) Precip ( " mm )
12:53 am 00:53 Cloudy 42 5.6 39 3.9 89 89 SSW 6 9 30.12 1020 10 16 N/A
1:53 am 01:53 Cloudy 42 5.6 39 3.9 89 89 SSW 6 9 30.11 1020 10 16 N/A
2:18 am 02:18 Cloudy 42 5.6 39 3.9 89 89 SSW 6 9 30.12 1020 10 16 N/A
2:53 am 02:53 Cloudy 42 5.6 40 4.4 92 92 SSW 6 9 30.12 1020 9 14 N/A
3:38 am 03:38 Cloudy 42 5.6 40 4.4 92 92 S 5 7 30.12 1020 9 14 N/A
3:53 am 03:53 Cloudy 42 5.6 40 4.4 92 92 S 6 9 30.10 1019 9 14 N/A
4:53 am 04:53 Cloudy 42 5.6 40 4.4 92 92 S 7 11 30.10 1019 7 11 N/A
5:53 am 05:53 Cloudy with Mist and Fog 42 5.6 41 5 96 96 SSW 5 7 30.10 1019 4 6 N/A
6:53 am 06:53 Cloudy with Mist and Fog 42 5.6 42 5.6 100 100 SSW 6 9 30.11 1020 3 5 N/A
7:53 am 07:53 Cloudy with Mist and Fog 43 6.1 42 5.6 97 97 SSW 8 13 30.11 1020 4 6 N/A
8:53 am 08:53 Cloudy with Mist and Fog 44 6.7 43 6.1 96 96 SW 7 11 30.12 1020 3 5 N/A
9:53 am 09:53 Cloudy with Mist and Fog 45 7.2 43 6.1 93 93 SSW 8 13 30.13 1020 4 6 N/A
10:53 am 10:53 Cloudy with Mist and Fog 46 7.8 44 6.7 93 93 SSW 9 15 30.12 1020 5 8 N/A
11:53 am 11:53 Cloudy with Mist and Fog 46 7.8 45 7.2 96 96 SSW 8 13 30.11 1020 4 6 N/A
12:53 pm 12:53 Cloudy 48 8.9 45 7.2 89 89 SSW 10 17 30.06 1018 10 16 N/A
1:53 pm 13:53 Cloudy 48 8.9 44 6.7 86 86 SW 9 15 30.05 1018 9 14 N/A
2:53 pm 14:53 Cloudy 48 8.9 44 6.7 86 86 SW 9 15 30.04 1017 10 16 N/A
3:53 pm 15:53 Cloudy with Drizzle 47 8.3 46 7.8 97 97 SSW 7 11 30.04 1017 4 6 N/A
4:53 pm 16:53 Cloudy 47 8.3 45 7.2 93 93 SSW 8 13 30.05 1018 9 14 N/A
5:53 pm 17:53 Cloudy 47 8.3 45 7.2 93 93 SW 8 13 30.06 1018 9 14 N/A
6:53 pm 18:53 Cloudy 47 8.3 45 7.2 93 93 SSW 8 13 30.07 1018 10 16 N/A
7:53 pm 19:53 Cloudy 47 8.3 44 6.7 90 90 SSW 9 15 30.08 1019 10 16 N/A
8:53 pm 20:53 Cloudy 47 8.3 44 6.7 90 90 SSW 9 15 30.08 1019 10 16 N/A
9:40 pm 21:40 Cloudy 47 8.3 44 6.7 90 90 SSW 12 19 30.09 1019 10 16 N/A
9:53 pm 21:53 Cloudy 47 8.3 44 6.7 90 90 SSW 9 15 30.08 1019 10 16 N/A
10:53 pm 22:53 Cloudy 47 8.3 43 6.1 86 86 SSW 12 19 30.06 1018 10 16 N/A
11:00 pm 23:00 Cloudy 47 8.3 43 6.1 86 86 SSW 12 19 30.06 1018 10 16 N/A
11:53 pm 23:53 Cloudy 46 7.8 42 5.6 86 86 SSW 12 19 30.07 1018 10 16 N/A

Powered by AerisWeather